"2010-02-17 00:00:00",1687959,3.916,214.5,6.516,1.237,3.268,100.6408,0.934,2.256,33.2,0,109.8,13.48,1.69,176.5
"2010-02-17 00:00:30",1687960,3.8,211.9,5.581,1.19,3.357,100.6439,0.942,2.229,33.16,0,109.8,13.48,1.70,173.9
"2010-02-17 00:01:00",1687961,3.863,209.3,6.743,1.219,2.785,100.6439,0.942,2.259,33.21,0,109.8,13.48,1.70,171.3
"2010-02-17 00:01:30",1687962,2.345,201.2,1.184,0.135,-0.111,100.6445,0.944,1.996,32.89,0,109.8,13.52,1.70,163.2
"2010-02-17 00:02:00",1687963,2.805,206.2,4.791,0.992,0.955,100.6445,0.944,2.065,32.88,0,109.8,13.48,1.70,168.2
"2010-02-17 00:02:30",1687964,4.237,210.8,5.527,1.059,4.282,100.6408,0.935,2.204,32.91,0,109.8,13.48,1.69,172.8
"2010-02-17 00:03:00",1687965,3.938,205.8,8.41,1.092,4.382,100.623,0.889,2.237,32.87,0,109.8,13.48,1.64,167.8
"2010-02-17 00:03:30",1687966,3.248,202.1,6.016,1.221,3.384,100.6117,0.86,2.189,32.9,0,109.8,13.48,1.62,164.1
"2010-02-17 00:04:00",1687967,2.276,201,8.51,1.15,1.439,100.6106,0.857,2.058,32.68,0,109.8,13.48,1.61,163.0
"2010-02-17 00:04:30",1687968,2.011,191.5,6.76,0.951,1.108,100.6106,0.857,2.032,32.52,0,109.8,13.48,1.61,153.5
"2010-02-17 00:05:00",1687969,2.593,197.8,7.771,1.257,1.856,100.6106,0.857,2.015,32.44,0,109.8,13.48,1.61,159.8
"2010-02-17 00:05:30",1687970,2.469,190.1,6.337,1.243,2.236,100.6089,0.853,2.048,32.44,0,109.8,13.49,1.61,152.1
"2010-02-17 00:06:00",1687971,2.749,190.3,6.853,1.264,3.199,100.5976,0.824,2.061,32.45,0,109.8,13.49,1.58,152.3
"2010-02-17 00:06:30",1687972,3.135,190.7,5.564,1.25,3.685,100.5815,0.783,2.118,32.56,0,109.8,13.48,1.54,152.7
"2010-02-17 00:07:00",1687973,3.014,192.1,7.402,1.229,3.429,100.5772,0.772,2.056,32.54,0,109.8,13.48,1.53,154.1
"2010-02-17 00:07:30",1687974,2.793,190.5,8.38,1.169,2.167,100.5767,0.771,2.039,32.61,0,109.8,13.48,1.53,152.5
"2010-02-17 00:08:00",1687975,2.627,194.6,5.737,1.046,0.964,100.5767,0.771,1.964,32.65,0,109.8,13.48,1.53,156.6
"2010-02-17 00:08:30",1687976,3.092,197.7,6.66,1.284,1.956,100.5767,0.771,1.899,32.64,0,109.8,13.48,1.53,159.7
"2010-02-17 00:09:00",1687977,2.922,199.6,7.142,1.226,2.264,100.5767,0.771,2.037,32.81,0,109.8,13.48,1.53,161.6
"2010-02-17 00:09:30",1687978,3.798,206.2,5.247,1.113,3.914,100.5767,0.771,2.089,32.96,0,109.8,13.49,1.53,168.2
"2010-02-17 00:10:00",1687979,3.879,201.8,6.723,1.132,4.243,100.5733,0.762,2.071,33.11,0,109.8,13.49,1.52,163.8
"2010-02-17 00:10:30",1687980,2.994,194.5,6.262,1.211,2.993,100.5622,0.734,1.993,33.13,0,109.8,13.49,1.49,156.5
"2010-02-17 00:11:00",1687981,2.906,193.8,6.274,1.22,1.839,100.5473,0.696,1.953,33.16,0,109.8,13.49,1.45,155.8
"2010-02-17 00:11:30",1687982,3.088,195.6,5.881,1.15,2.059,100.5427,0.684,2,33.29,0,109.8,13.49,1.44,157.6
"2010-02-17 00:12:00",1687983,3.562,191.6,7.564,1.176,2.817,100.5427,0.684,1.84,33.12,0,109.8,13.5,1.44,153.6
"2010-02-17 00:12:30",1687984,3.004,186,5.499,1.029,1.682,100.5427,0.684,1.898,33.21,0,109.8,13.5,1.44,148.0
"2010-02-17 00:13:00",1687985,4.397,190.5,5.223,1.025,4.303,100.5427,0.684,2.016,33.28,0,109.8,13.5,1.44,152.5
"2010-02-17 00:13:30",1687986,3.497,184.2,6.21,1.275,2.403,100.543,0.685,1.812,33.08,0,109.8,13.5,1.44,146.2
"2010-02-17 00:14:00",1687987,3.495,184.7,6.24,1.207,2.429,100.5399,0.677,1.903,33.18,0,109.8,13.5,1.43,146.7
"2010-02-17 00:14:30",1687988,3.907,188.7,7.041,1.238,3.387,100.5329,0.659,1.942,33.21,0,109.7,13.5,1.41,150.7
"2010-02-17 00:15:00",1687989,3.758,189.4,7.294,1.235,3.103,100.5264,0.643,1.898,33.3,0,109.7,13.5,1.40,151.4
"2010-02-17 00:15:30",1687990,3.343,193.2,6.533,1.236,2.621,100.519,0.624,1.873,33.4,0,109.7,13.5,1.38,155.2
"2010-02-17 00:16:00",1687991,3.697,192.5,5.589,1.258,3.334,100.5179,0.621,1.909,33.4,0,109.7,13.5,1.38,154.5
"2010-02-17 00:16:30",1687992,3.665,195.3,6.773,1.194,3.404,100.5205,0.628,1.816,33.38,0,109.7,13.5,1.38,157.3
"2010-02-17 00:17:00",1687993,3.589,193.1,7.631,1.239,3.315,100.5219,0.631,1.937,33.59,0,109.7,13.5,1.39,155.1
"2010-02-17 00:17:30",1687994,3.954,190.3,6.501,1.247,3.627,100.5168,0.618,1.892,33.58,0,109.7,13.5,1.37,152.3
"2010-02-17 00:18:00",1687995,3.381,186.9,6.749,1.279,2.954,100.4999,0.575,1.966,33.64,0,109.7,13.5,1.33,148.9
"2010-02-17 00:18:30",1687996,3.53,184.6,5.235,1.254,2.13,100.4968,0.567,1.732,33.42,0,109.7,13.51,1.32,146.6
"2010-02-17 00:19:00",1687997,3.736,189.7,6.576,1.225,2.791,100.5007,0.577,1.815,33.49,0,109.7,13.51,1.33,151.7
"2010-02-17 00:19:30",1687998,3.758,190,6.894,1.237,3.254,100.4996,0.574,1.829,33.56,0,109.7,13.51,1.33,152.0
"2010-02-17 00:20:00",1687999,3.741,186.8,5.607,1.242,3.177,100.501,0.578,1.784,33.55,0,109.7,13.51,1.33,148.8
"2010-02-17 00:20:30",1688000,5.148,194,3.99,0.809,5.724,100.4957,0.564,1.924,33.75,0,109.7,13.51,1.32,156.0
"2010-02-17 00:21:00",1688001,4.076,188.1,6.462,1.207,3.515,100.4847,0.536,1.884,33.79,0,109.7,13.51,1.29,150.1
"2010-02-17 00:21:30",1688002,3.432,187.4,5.11,1.044,1.78,100.4759,0.514,1.666,33.66,0,109.7,13.51,1.27,149.4
"2010-02-17 00:22:00",1688003,3.922,191.2,6.488,1.22,2.647,100.4748,0.511,1.663,33.72,0,109.7,13.51,1.26,153.2
"2010-02-17 00:22:30",1688004,3.598,190.4,5.26,1.205,1.934,100.4748,0.511,1.585,33.7,0,109.7,13.51,1.26,152.4
"2010-02-17 00:23:00",1688005,3.899,197,7.638,1.287,4.18,100.4736,0.508,1.865,34,0,109.7,13.51,1.26,159.0
"2010-02-17 00:23:30",1688006,4.949,202.9,3.4,0.774,6.112,100.4536,0.457,1.845,33.99,0,109.7,13.51,1.21,164.9
"2010-02-17 00:24:00",1688007,5.309,203.1,4.308,0.677,5.293,100.4414,0.426,1.802,34.03,0,109.7,13.5,1.18,165.1
"2010-02-17 00:24:30",1688008,3.194,193.4,4.666,0.797,1.976,100.4411,0.425,1.67,33.93,0,109.7,13.51,1.18,155.4
"2010-02-17 00:25:00",1688009,3.46,191.7,5.816,1.014,1.573,100.4411,0.425,1.516,33.87,0,109.7,13.51,1.18,153.7
"2010-02-17 00:25:30",1688010,2.807,186.8,1.739,0.078,1.004,100.4372,0.415,1.532,33.94,0,109.7,13.54,1.17,148.8
"2010-02-17 00:26:00",1688011,4.466,195.7,6.013,1.19,4.634,100.416,0.361,1.706,34.19,0,109.7,13.51,1.11,157.7
"2010-02-17 00:26:30",1688012,4.621,196.2,5.109,1.026,5.933,100.4072,0.339,1.764,34.28,0,109.7,13.51,1.09,158.2
"2010-02-17 00:27:00",1688013,5.28,199,4.284,0.508,5.995,100.4072,0.339,1.77,34.34,0,109.7,13.51,1.09,161.0
"2010-02-17 00:27:30",1688014,3.751,193.8,5.265,1.107,2.563,100.4038,0.33,1.509,34.16,0,109.7,13.51,1.08,155.8
"2010-02-17 00:28:00",1688015,4.201,195.4,5.944,1.213,2.309,100.3851,0.282,1.536,34.26,0,109.7,13.51,1.04,157.4
"2010-02-17 00:28:30",1688016,3.881,193.6,4.064,0.897,1.207,100.3755,0.258,1.403,34.31,0,109.7,13.52,1.01,155.6
"2010-02-17 00:29:00",1688017,5.509,203,4.98,1.013,5.002,100.3752,0.257,1.616,34.26,0,109.7,13.52,1.01,165.0
"2010-02-17 00:29:30",1688018,5.931,206.7,4.516,0.861,5.74,100.3789,0.267,1.673,34.21,0,109.7,13.52,1.02,168.7
"2010-02-17 00:30:00",1688019,5.759,207,5.436,0.675,5.884,100.3651,0.231,1.664,34.08,0,109.7,13.52,0.98,169.0
"2010-02-17 00:30:30",1688020,5.976,208.9,3.161,0.785,5.537,100.3598,0.218,1.604,34.02,0,109.7,13.52,0.97,170.9
"2010-02-17 00:31:00",1688021,4.408,197.1,5.368,1.022,1.868,100.3617,0.223,1.418,33.73,0,109.7,13.52,0.98,159.1
"2010-02-17 00:31:30",1688022,4.752,199.6,7.084,1.164,2.242,100.3572,0.211,1.347,33.61,0,109.7,13.52,0.96,161.6
"2010-02-17 00:32:00",1688023,4.819,201.8,6.952,1.208,3.378,100.3363,0.158,1.509,33.87,0,109.7,13.52,0.91,163.8
"2010-02-17 00:32:30",1688024,5.852,207.9,5.337,0.861,5.855,100.3375,0.161,1.524,33.99,0,109.7,13.52,0.91,169.9
"2010-02-17 00:33:00",1688025,5.947,206.6,2.91,0.75,6.019,100.3369,0.159,1.545,34.17,0,109.7,13.53,0.91,168.6
"2010-02-17 00:33:30",1688026,5.696,205.5,3.526,0.778,5.665,100.3225,0.123,1.54,34.27,0,109.7,13.53,0.88,167.5
"2010-02-17 00:34:00",1688027,5.202,203.2,5.591,1.158,4.605,100.3061,0.081,1.411,34.3,0,109.7,13.53,0.83,165.2
"2010-02-17 00:34:30",1688028,3.873,198.1,4.038,1.016,1.481,100.3055,0.079,1.171,34.17,0,109.7,13.53,0.83,160.1
"2010-02-17 00:35:00",1688029,4.596,203.5,5.833,1.233,2.72,100.3013,0.069,1.3,34.43,0,109.7,13.53,0.82,165.5
"2010-02-17 00:35:30",1688030,4.757,206.6,7.117,1.233,3.316,100.2752,0.002,1.313,34.56,0,109.6,13.53,0.75,168.6
"2010-02-17 00:36:00",1688031,5.663,213.1,3.676,0.775,5.826,100.2716,-0.007,1.401,34.79,0,109.7,13.54,0.74,175.1
"2010-02-17 00:36:30",1688032,5.693,212,3.786,0.671,5.81,100.2716,-0.007,1.383,34.83,0,109.7,13.54,0.74,174.0
"2010-02-17 00:37:00",1688033,4.628,208.3,6.252,1.196,3.437,100.2639,-0.027,1.269,34.95,0,109.7,13.54,0.73,170.3
"2010-02-17 00:37:30",1688034,4.766,208.4,6.139,1.208,3.629,100.2396,-0.089,1.189,35,0,109.6,13.54,0.66,170.4
"2010-02-17 00:38:00",1688035,3.99,204.3,4.989,0.964,1.88,100.2376,-0.094,1.189,35.05,0,109.6,13.54,0.66,166.3
"2010-02-17 00:38:30",1688036,5.195,215.4,5.879,1.164,4.275,100.2376,-0.094,1.218,34.85,0,109.6,13.54,0.66,177.4
"2010-02-17 00:39:00",1688037,4.965,214.2,6.017,1.23,4.274,100.2271,-0.12,1.247,33.96,0,109.6,13.54,0.63,176.2
"2010-02-17 00:39:30",1688038,5.345,214.8,5.824,1.065,4.861,100.2057,-0.175,1.219,33.58,0,109.6,13.54,0.58,176.8
"2010-02-17 00:40:00",1688039,5.382,216.1,5.727,1.095,4.474,100.2045,-0.178,1.125,33.47,0,109.6,13.54,0.57,178.1
"2010-02-17 00:40:30",1688040,4.473,211.5,5.886,1.167,3.106,100.2093,-0.166,1.172,33.52,0,109.6,13.54,0.59,173.5
"2010-02-17 00:41:00",1688041,5.463,216.2,5.461,1.063,4.317,100.2116,-0.16,1.091,33.41,0,109.6,13.54,0.59,178.2
"2010-02-17 00:41:30",1688042,4.808,211.7,6.352,1.267,3.104,100.1952,-0.202,1.01,33.39,0,109.6,13.54,0.55,173.7
"2010-02-17 00:42:00",1688043,5.473,216.4,5.376,1.069,4.754,100.1844,-0.229,1.14,33.6,0,109.6,13.54,0.52,178.4
"2010-02-17 00:42:30",1688044,5.541,214.5,5.91,1.107,4.797,100.187,-0.223,1.098,33.57,0,109.6,13.54,0.53,176.5
"2010-02-17 00:43:00",1688045,5.644,215.4,6.004,1.151,4.038,100.1896,-0.216,1.069,33.58,0,109.6,13.54,0.54,177.4
"2010-02-17 00:43:30",1688046,5.362,213.4,6.239,1.185,4.366,100.1901,-0.215,1.087,33.49,0,109.6,13.54,0.54,175.4
"2010-02-17 00:44:00",1688047,5.693,215.6,5.607,1.084,4.592,100.1749,-0.254,1.091,33.45,0,109.6,13.54,0.50,177.6
"2010-02-17 00:44:30",1688048,5.283,214.2,6.527,1.188,3.705,100.1633,-0.283,1.037,33.45,0,109.6,13.55,0.47,176.2
"2010-02-17 00:45:00",1688049,4.814,213.3,5.998,1.129,2.546,100.1655,-0.278,0.924,33.38,0,109.6,13.55,0.47,175.3
"2010-02-17 00:45:30",1688050,5.6,217.7,5.701,1.115,4.606,100.1689,-0.269,1.027,33.55,0,109.6,13.55,0.48,179.7
"2010-02-17 00:46:00",1688051,5.715,218.1,5.848,1.116,4.76,100.1658,-0.277,1.03,33.57,0,109.5,13.56,0.47,180.1
"2010-02-17 00:46:30",1688052,6.297,219.5,4.259,0.909,5.425,100.1483,-0.322,1.013,33.59,0,109.6,13.56,0.43,181.5
"2010-02-17 00:47:00",1688053,5.671,216.3,5.977,1.137,4.812,100.1367,-0.351,0.994,33.54,0,109.6,13.56,0.40,178.3
"2010-02-17 00:47:30",1688054,5.691,215.5,5.954,1.187,4.06,100.1358,-0.353,0.927,33.41,0,109.6,13.56,0.40,177.5
"2010-02-17 00:48:00",1688055,4.562,210.4,4.192,0.896,2.462,100.1358,-0.353,0.868,33.33,0,109.6,13.56,0.40,172.4
"2010-02-17 00:48:30",1688056,5.483,211.6,6.013,1.104,4.255,100.1358,-0.353,0.906,33.49,0,109.6,13.56,0.40,173.6
"2010-02-17 00:49:00",1688057,5.371,213.6,6.222,1.209,4.813,100.1358,-0.353,0.952,33.7,0,109.6,13.56,0.40,175.6
"2010-02-17 00:49:30",1688058,5.833,215.1,5.126,0.779,5.674,100.1358,-0.353,1.009,33.85,0,109.6,13.56,0.40,177.1
"2010-02-17 00:50:00",1688059,5.763,214,5.041,1.084,5.039,100.1347,-0.356,0.889,33.91,0,109.6,13.56,0.39,176.0
"2010-02-17 00:50:30",1688060,5.014,210.6,6.594,1.186,3.601,100.1242,-0.383,0.933,33.78,0,109.6,13.56,0.37,172.6
"2010-02-17 00:51:00",1688061,4.681,208.9,6.46,1.078,2.968,100.1081,-0.424,0.751,33.67,0,109.6,13.56,0.33,170.9
"2010-02-17 00:51:30",1688062,6.119,215.2,3.13,0.498,5.55,100.1033,-0.436,0.88,33.97,0,109.5,13.56,0.31,177.2
"2010-02-17 00:52:00",1688063,5.568,211.3,6.352,1.158,4.654,100.1019,-0.44,0.875,33.98,0,109.5,13.56,0.31,173.3
"2010-02-17 00:52:30",1688064,5.646,213.3,4.552,0.992,5.352,100.1021,-0.439,0.922,34.05,0,109.5,13.56,0.31,175.3
"2010-02-17 00:53:00",1688065,5.567,212.8,5.291,1.051,4.846,100.103,-0.437,0.971,33.96,0,109.5,13.56,0.31,174.8
"2010-02-17 00:53:30",1688066,5.182,211.9,6.391,1.194,3.979,100.1067,-0.428,0.894,33.5,0,109.5,13.57,0.32,173.9
"2010-02-17 00:54:00",1688067,4.289,208,5.171,0.867,1.807,100.1109,-0.417,0.754,33.33,0,109.5,13.56,0.33,170.0
"2010-02-17 00:54:30",1688068,5.407,214.5,5.92,1.117,4.408,100.1183,-0.398,0.895,33.24,0,109.5,13.57,0.35,176.5
"2010-02-17 00:55:00",1688069,5.51,216.3,6.066,1.111,5.208,100.122,-0.389,0.885,33.06,0,109.5,13.56,0.36,178.3
"2010-02-17 00:55:30",1688070,5.827,218.3,3.961,0.908,5.862,100.1262,-0.378,0.884,32.77,0,109.5,13.56,0.37,180.3
"2010-02-17 00:56:00",1688071,5.544,217.2,5.971,1.04,5.202,100.1285,-0.372,0.857,32.6,0,109.5,13.56,0.38,179.2
"2010-02-17 00:56:30",1688072,4.045,209.3,5.392,1.102,2.374,100.1327,-0.361,0.773,32.99,0,109.5,13.56,0.39,171.3
"2010-02-17 00:57:00",1688073,5.249,216.3,5.257,1.15,4.531,100.133,-0.36,0.775,33.49,0,109.5,13.56,0.39,178.3
"2010-02-17 00:57:30",1688074,4.455,211,5.91,1.132,3.144,100.1336,-0.359,0.807,33.82,0,109.5,13.56,0.39,173.0
"2010-02-17 00:58:00",1688075,5.226,214.8,5.487,1.13,5.047,100.1305,-0.367,0.872,34.16,0,109.5,13.56,0.38,176.8
"2010-02-17 00:58:30",1688076,5.252,213.5,5.708,1.033,5.716,100.1294,-0.37,0.926,34.43,0,109.5,13.57,0.38,175.5
"2010-02-17 00:59:00",1688077,5.304,213.5,4.994,1.114,4.784,100.1274,-0.375,0.888,34.46,0,109.5,13.57,0.38,175.5
"2010-02-17 00:59:30",1688078,4.412,210.5,4.983,1.081,2.536,100.1254,-0.38,0.675,34.12,0,109.5,13.57,0.37,172.5
"2010-02-17 01:00:00",1688079,4.845,215.2,6.335,1.189,3.684,100.1228,-0.386,0.799,34.26,0,109.5,13.57,0.36,177.2
"2010-02-17 01:00:30",1688080,4.476,212.9,5.731,1.189,3.457,100.1197,-0.394,0.842,34.3,0,109.5,13.57,0.36,174.9
"2010-02-17 01:01:00",1688081,5.066,217,6.252,1.179,4.562,100.1183,-0.398,0.819,34.19,0,109.5,13.57,0.35,179.0
"2010-02-17 01:01:30",1688082,5.679,220.4,4.832,0.95,5.899,100.1166,-0.402,0.903,34.01,0,109.5,13.58,0.35,182.4
"2010-02-17 01:02:00",1688083,5.626,222.9,4.29,0.942,5.323,100.1175,-0.4,0.909,33.44,0,109.5,13.57,0.35,184.9
"2010-02-17 01:02:30",1688084,4.793,216.7,5.497,1.175,3.85,100.1175,-0.4,0.786,33.21,0,109.5,13.58,0.35,178.7
"2010-02-17 01:03:00",1688085,4.718,216.9,6.571,1.247,4.002,100.1166,-0.402,0.866,33.48,0,109.5,13.58,0.35,178.9
"2010-02-17 01:03:30",1688086,4.604,217.3,5.673,1.214,3.099,100.1178,-0.399,0.71,33.36,0,109.5,13.58,0.35,179.3
"2010-02-17 01:04:00",1688087,4.826,220,6.053,1.242,4.746,100.1175,-0.4,0.878,33.62,0,109.5,13.58,0.35,182.0
"2010-02-17 01:04:30",1688088,5.202,223,5.615,1.079,5.273,100.1175,-0.4,0.876,33.77,0,109.4,13.58,0.35,185.0
"2010-02-17 01:05:00",1688089,5.067,223.6,5.25,1.082,4.843,100.1178,-0.399,0.891,33.65,0,109.5,13.58,0.35,185.6
"2010-02-17 01:05:30",1688090,4.935,223.5,5.736,1.12,4.414,100.118,-0.399,0.839,33.39,0,109.5,13.58,0.35,185.5
"2010-02-17 01:06:00",1688091,4.832,222.1,5.63,1.134,4.462,100.1178,-0.399,0.81,33.15,0,109.5,13.58,0.35,184.1
"2010-02-17 01:06:30",1688092,4.51,224.8,6.634,1.259,3.444,100.1178,-0.399,0.784,33,0,109.5,13.58,0.35,186.8
"2010-02-17 01:07:00",1688093,4.907,226.8,6.551,1.238,4.848,100.1166,-0.402,0.861,32.74,0,109.5,13.59,0.35,188.8
"2010-02-17 01:07:30",1688094,5.549,229.4,4.562,0.982,5.698,100.1166,-0.402,0.884,32.59,0,109.5,13.59,0.35,191.4
"2010-02-17 01:08:00",1688095,5.326,225.5,6.54,1.151,5.094,100.1172,-0.401,0.892,32.33,0,109.5,13.59,0.35,187.5
"2010-02-17 01:08:30",1688096,5.44,226.9,5.458,1.067,5.315,100.1161,-0.404,0.944,32.23,0,109.5,13.59,0.35,188.9
"2010-02-17 01:09:00",1688097,5.248,226.5,5.6,1.123,4.963,100.1169,-0.402,0.852,32.01,0,109.5,13.59,0.35,188.5
"2010-02-17 01:09:30",1688098,4.484,221.3,6.515,1.068,3.064,100.1189,-0.396,0.807,31.76,0,109.6,13.59,0.35,183.3
"2010-02-17 01:10:00",1688099,4.907,223.2,6.261,1.258,4.052,100.1186,-0.397,0.876,31.49,0,109.5,13.59,0.35,185.2
"2010-02-17 01:10:30",1688100,5.246,225,5.117,1.168,5.514,100.122,-0.389,0.908,31.32,0,109.5,13.59,0.36,187.0
"2010-02-17 01:11:00",1688101,5.452,226.3,5.785,1.038,5.082,100.1262,-0.378,0.935,31.29,0,109.5,13.59,0.37,188.3
"2010-02-17 01:11:30",1688102,5.815,230.4,4.794,0.856,5.738,100.1322,-0.363,0.984,31.22,0,109.5,13.59,0.39,192.4
"2010-02-17 01:12:00",1688103,5.666,231.1,6.167,0.996,5.071,100.139,-0.345,0.845,31.11,0,109.5,13.58,0.41,193.1
"2010-02-17 01:12:30",1688104,4.643,226.7,6.179,1.161,3.653,100.1447,-0.331,0.788,30.87,0,109.5,13.58,0.42,188.7
"2010-02-17 01:13:00",1688105,4.814,227.6,5.332,1.268,3.48,100.1486,-0.321,0.826,30.77,0,109.5,13.58,0.43,189.6
"2010-02-17 01:13:30",1688106,5.089,225.9,5.376,1.115,4.516,100.1563,-0.301,0.949,30.71,0,109.5,13.58,0.45,187.9
"2010-02-17 01:14:00",1688107,5.758,231.3,3.449,0.655,6.439,100.1588,-0.295,0.973,30.81,0,109.5,13.58,0.46,193.3
"2010-02-17 01:14:30",1688108,6.013,230.4,3.781,0.495,6.266,100.1602,-0.291,1.003,30.8,0,109.5,13.58,0.46,192.4
"2010-02-17 01:15:00",1688109,5.162,227.8,6.216,1.202,4.341,100.1611,-0.289,0.878,30.59,0,109.5,13.58,0.46,189.8
"2010-02-17 01:15:30",1688110,4.179,220.8,5.92,0.952,2.888,100.1622,-0.286,0.867,30.45,0,109.5,13.58,0.46,182.8
"2010-02-17 01:16:00",1688111,4.588,221.7,6.719,1.197,3.201,100.1639,-0.282,0.757,30.13,0,109.5,13.59,0.47,183.7
"2010-02-17 01:16:30",1688112,5.384,227.1,5.611,1.058,5.232,100.1631,-0.284,0.953,30.14,0,109.5,13.59,0.47,189.1
"2010-02-17 01:17:00",1688113,5.576,227.8,5.214,0.858,5.989,100.1648,-0.279,0.99,30.14,0,109.5,13.59,0.47,189.8
"2010-02-17 01:17:30",1688114,5.632,230.4,3.983,0.825,6.044,100.1668,-0.274,1.043,30.17,0,109.5,13.59,0.48,192.4
"2010-02-17 01:18:00",1688115,5.285,228,6.47,1.079,5.474,100.1685,-0.27,1.037,30,0,109.5,13.59,0.48,190.0
"2010-02-17 01:18:30",1688116,4.915,223.7,6.685,1.228,4.023,100.1693,-0.268,0.833,29.85,0,109.5,13.59,0.48,185.7
"2010-02-17 01:19:00",1688117,3.62,217.1,2.571,0.593,1.563,100.1699,-0.266,0.746,29.8,0,109.5,13.59,0.48,179.1
"2010-02-17 01:19:30",1688118,4.091,218.4,7.185,1.025,2.99,100.1699,-0.266,0.925,30.21,0,109.5,13.6,0.48,180.4
"2010-02-17 01:20:00",1688119,5.511,229.1,4.252,0.763,6.161,100.1699,-0.266,1.004,30.34,0,109.5,13.6,0.48,191.1
"2010-02-17 01:20:30",1688120,5.396,226.7,4.328,0.777,6.531,100.1702,-0.266,1.04,30.52,0,109.5,13.6,0.49,188.7
"2010-02-17 01:21:00",1688121,5.741,226.8,4.587,0.553,6.41,100.1699,-0.266,1.076,30.64,0,109.5,13.6,0.48,188.8
"2010-02-17 01:21:30",1688122,3.503,219,4.888,0.894,2.599,100.171,-0.264,0.921,30.38,0,109.5,13.6,0.49,181.0
"2010-02-17 01:22:00",1688123,3.507,215.9,4.789,0.732,2.01,100.1736,-0.257,0.916,30.42,0,109.5,13.6,0.49,177.9
"2010-02-17 01:22:30",1688124,4.347,218.8,6.684,1.292,3.088,100.1758,-0.251,0.83,30.28,0,109.5,13.6,0.50,180.8
"2010-02-17 01:23:00",1688125,5.319,223,5.799,1.047,5.555,100.177,-0.248,1.109,30.42,0,109.5,13.6,0.50,185.0
"2010-02-17 01:23:30",1688126,5.524,225.3,3.784,0.863,6.172,100.1804,-0.24,1.085,30.51,0,109.5,13.6,0.51,187.3
"2010-02-17 01:24:00",1688127,5.383,221.8,5.474,0.923,5.969,100.1891,-0.217,1.041,30.97,0,109.5,13.6,0.53,183.8
"2010-02-17 01:24:30",1688128,4.822,221.5,5.736,1.15,4.929,100.1923,-0.209,1.026,31.41,0,109.5,13.6,0.54,183.5
"2010-02-17 01:25:00",1688129,4.772,219.6,6.496,1.254,3.776,100.1923,-0.209,0.875,31.12,0,109.5,13.6,0.54,181.6
"2010-02-17 01:25:30",1688130,4.512,217.3,5.049,1.103,3.304,100.1974,-0.196,0.947,30.73,0,109.5,13.6,0.56,179.3
"2010-02-17 01:26:00",1688131,5.478,220.8,6.242,1.199,4.784,100.1982,-0.194,1.019,30.55,0,109.5,13.6,0.56,182.8
"2010-02-17 01:26:30",1688132,6.082,221.5,5.557,0.808,5.933,100.1985,-0.194,1.055,30.25,0,109.5,13.6,0.56,183.5
"2010-02-17 01:27:00",1688133,5.839,221.3,4.289,0.923,6.291,100.2022,-0.184,1.154,30.17,0,109.5,13.6,0.57,183.3
"2010-02-17 01:27:30",1688134,5.921,221.3,6.608,1.065,5.233,100.2022,-0.184,1.032,30.14,0,109.5,13.6,0.57,183.3
"2010-02-17 01:28:00",1688135,4.421,214.8,4.609,0.991,2.711,100.2027,-0.183,0.946,30.02,0,109.5,13.6,0.57,176.8
"2010-02-17 01:28:30",1688136,5.031,215.2,7.235,1.179,3.397,100.2033,-0.181,0.926,30.25,0,109.5,13.6,0.57,177.2
"2010-02-17 01:29:00",1688137,6.386,222,5.839,1.031,5.458,100.2036,-0.181,1.016,29.6,0,109.5,13.6,0.57,184.0
"2010-02-17 01:29:30",1688138,6.398,219.8,5.013,0.936,5.928,100.2039,-0.18,1.114,29.19,0,109.5,13.6,0.57,181.8
"2010-02-17 01:30:00",1688139,5.924,220,6.314,1.187,5.27,100.2039,-0.18,1.06,28.99,0,109.5,13.6,0.57,182.0
"2010-02-17 01:30:30",1688140,5.571,219.2,7.407,1.209,5.363,100.2039,-0.18,1.085,28.98,0,109.5,13.6,0.57,181.2
"2010-02-17 01:31:00",1688141,6.099,219,7.009,1.056,4.738,100.2039,-0.18,1.012,29.03,0,109.5,13.6,0.57,181.0
"2010-02-17 01:31:30",1688142,5.567,215.1,5.781,1.159,3.851,100.2039,-0.18,1.022,28.55,0,109.5,13.6,0.57,177.1
"2010-02-17 01:32:00",1688143,5.91,216.2,5.802,1.255,4.384,100.2039,-0.18,1.03,28.34,0,109.5,13.6,0.57,178.2
"2010-02-17 01:32:30",1688144,6.106,221.3,5.273,1.087,5.637,100.2039,-0.18,1.121,28.54,0,109.5,13.6,0.57,183.3
"2010-02-17 01:33:00",1688145,6.266,218,5.894,1.067,5.378,100.2041,-0.179,1.093,28.65,0,109.5,13.6,0.57,180.0
"2010-02-17 01:33:30",1688146,6.602,220.9,5.094,1.08,5.553,100.2041,-0.179,1.107,28.38,0,109.5,13.6,0.57,182.9
"2010-02-17 01:34:00",1688147,6.423,222.3,6.574,1.087,5.273,100.2039,-0.18,1.109,28.02,0,109.5,13.6,0.57,184.3
"2010-02-17 01:34:30",1688148,6.572,226.2,4.988,1.045,5.308,100.2039,-0.18,1.092,27.69,0,109.5,13.6,0.57,188.2
"2010-02-17 01:35:00",1688149,6.363,225,5.662,1.125,5.343,100.2039,-0.18,1.109,27.62,0,109.5,13.6,0.57,187.0
"2010-02-17 01:35:30",1688150,5.896,223.7,6.267,1.165,4.796,100.2039,-0.18,1.116,27.82,0,109.5,13.6,0.57,185.7
"2010-02-17 01:36:00",1688151,6.009,224.9,5.988,1.151,5.553,100.205,-0.177,1.126,27.89,0,109.5,13.6,0.57,186.9
"2010-02-17 01:36:30",1688152,6.124,225.6,6.513,1.15,5.11,100.2044,-0.178,1.083,27.97,0,109.5,13.61,0.57,187.6
"2010-02-17 01:37:00",1688153,6.433,226.8,5.523,1.008,5.687,100.2076,-0.17,1.178,28.01,0,109.5,13.61,0.58,188.8
"2010-02-17 01:37:30",1688154,6.804,229.3,4.84,0.851,6.101,100.2143,-0.153,1.203,27.89,0,109.5,13.61,0.60,191.3
"2010-02-17 01:38:00",1688155,6.296,228.4,6.296,1.135,5.507,100.2268,-0.121,1.167,27.78,0,109.5,13.61,0.63,190.4
"2010-02-17 01:38:30",1688156,6.08,233.1,5.685,1.201,4.413,100.2364,-0.097,1.092,27.45,0,109.5,13.61,0.65,195.1
"2010-02-17 01:39:00",1688157,5.926,236.5,6.328,1.165,4.379,100.239,-0.09,1.172,27.29,0,109.5,13.61,0.66,198.5
"2010-02-17 01:39:30",1688158,6.101,239.4,5.881,1.178,4.914,100.2395,-0.089,1.174,27.1,0,109.5,13.61,0.66,201.4
"2010-02-17 01:40:00",1688159,6.606,241.4,4.09,0.847,6.024,100.2387,-0.091,1.226,27.04,0,109.5,13.61,0.66,203.4
"2010-02-17 01:40:30",1688160,6.674,238.2,5.696,1.003,5.789,100.2387,-0.091,1.223,26.8,0,109.5,13.61,0.66,200.2
"2010-02-17 01:41:00",1688161,6.433,236.2,5.168,1.146,5.323,100.2452,-0.074,1.211,26.59,0,109.5,13.61,0.68,198.2
"2010-02-17 01:41:30",1688162,6.512,236.8,5.676,1.117,5.574,100.2548,-0.05,1.216,26.44,0,109.5,13.61,0.70,198.8
"2010-02-17 01:42:00",1688163,6.602,237,6.339,1.067,5.224,100.2699,-0.012,1.089,26.22,0,109.5,13.61,0.74,199.0
"2010-02-17 01:42:30",1688164,5.987,235.3,5.899,1.176,4.82,100.2738,-0.001,1.213,26.3,0,109.5,13.61,0.75,197.3
"2010-02-17 01:43:00",1688165,6.743,238.4,4.423,0.828,6.235,100.2758,0.004,1.281,26.34,0,109.5,13.61,0.76,200.4
"2010-02-17 01:43:30",1688166,6.506,237,4.839,0.978,6.122,100.2772,0.007,1.291,26.35,0,109.5,13.61,0.76,199.0
"2010-02-17 01:44:00",1688167,6.48,235.9,5.242,1.042,5.725,100.2784,0.01,1.266,26.41,0,109.5,13.6,0.76,197.9
"2010-02-17 01:44:30",1688168,6.149,234.5,6.23,1.143,5.467,100.2823,0.02,1.289,26.48,0,109.5,13.6,0.77,196.5
"2010-02-17 01:45:00",1688169,6.144,233.8,5.889,1.08,5.055,100.2928,0.047,1.191,26.38,0,109.5,13.6,0.80,195.8
"2010-02-17 01:45:30",1688170,6.245,233.1,6.831,1.124,5.05,100.3087,0.087,1.233,26.26,0,109.5,13.6,0.84,195.1
"2010-02-17 01:46:00",1688171,6.639,234.1,5.333,0.948,5.997,100.314,0.101,1.366,26.3,0,109.5,13.6,0.85,196.1
"2010-02-17 01:46:30",1688172,6.857,232.6,3.716,0.746,6.888,100.3211,0.119,1.385,26.39,0,109.5,13.6,0.87,194.6
"2010-02-17 01:47:00",1688173,6.755,231.8,4.594,0.902,5.771,100.3209,0.119,1.361,26.17,0,109.5,13.6,0.87,193.8